Location: Croydon
(51.3762°N, 0.0982°W)
Time: 16:09:07
(UTC+01:00)

Envisat - Pass Details

Date: 25 February 2019
Orbit: 764 x 766 km, 98.1° (Epoch: 20 October)

Event Time Altitude Azimuth Distance (km) Brightness Sun altitude
Rises 06:07:15 0° 28° (NNE) 3,244 6.6 -8.1°
Reaches altitude 10° 06:10:41 10° 53° (NE) 2,311 6.3 -7.6°
Maximum altitude 06:13:26 14° 86° (E) 2,012 6.7 -7.2°
Drops below altitude 10° 06:16:09 10° 118° (ESE) 2,302 6.8 -6.8°
Sets 06:19:33 0° 143° (SE) 3,222 7.0 -6.2°
